When you browse on this site, cookies collect data to enhance your experience and personalize the content and advertising you see.
Visit our Privacy Policy to learn more. By continuing to use the site, you agree to this use of cookies and data.
  • In Hungary
  • List of Countries
  • For 7 days
  • Water Temperature
  • Satellite Maps
  • Weather Map
  • News
  • Weather Widgets
  • user-avatar
    Login

    Hourly Weather Bystrzyca Kłodzka

    Today, 20 March, Wednesday

    Time Temperature Precipitation Wind Pressure Humidity
    00:00 +1°C° 0 mm 0 mps 739 mmHg 78%
    01:00 +1°C° 0 mm 1 mps 739 mmHg 79%
    02:00 +1°C° 0 mm 1 mps 739 mmHg 80%
    03:00 0°C° 0 mm 0 mps 740 mmHg 81%
    04:00 0°C° 0 mm 0 mps 740 mmHg 82%
    05:00 0°C° 0 mm 0 mps 740 mmHg 81%
    06:00 +1°C° 0 mm 0 mps 740 mmHg 79%
    07:00 +2°C° 0 mm 1 mps 741 mmHg 75%
    08:00 +4°C° 0 mm 1 mps 741 mmHg 68%
    09:00 +5°C° 0 mm 1 mps 741 mmHg 61%
    10:00 +7°C° 0 mm 1 mps 741 mmHg 55%
    11:00 +7°C° 0 mm 1 mps 742 mmHg 52%
    12:00 +8°C° 0 mm 1 mps 742 mmHg 50%
    13:00 +8°C° 0 mm 2 mps 742 mmHg 47%
    14:00 +8°C° 0 mm 2 mps 742 mmHg 47%
    15:00 +9°C° 0 mm 1 mps 741 mmHg 47%
    16:00 +9°C° 0 mm 1 mps 741 mmHg 47%
    17:00 +7°C° 0 mm 1 mps 741 mmHg 54%
    18:00 +6°C° 0 mm 1 mps 741 mmHg 61%
    19:00 +4°C° 0 mm 1 mps 741 mmHg 68%
    20:00 +4°C° 0 mm 1 mps 742 mmHg 69%
    21:00 +3°C° 0 mm 0 mps 742 mmHg 71%
    22:00 +2°C° 0 mm 0 mps 742 mmHg 73%
    23:00 +2°C° 0 mm 0 mps 742 mmHg 74%

    Tomorrow, 21 March, Thursday

    Time Temperature Precipitation Wind Pressure Humidity
    00:00 +3°C° 0 mm 1 mps 742 mmHg 74%
    01:00 +3°C° 0 mm 1 mps 742 mmHg 75%
    02:00 +3°C° 0 mm 1 mps 742 mmHg 75%
    03:00 +3°C° 0 mm 1 mps 742 mmHg 75%
    04:00 +3°C° 0 mm 1 mps 742 mmHg 75%
    05:00 +3°C° 0 mm 1 mps 742 mmHg 73%
    06:00 +4°C° 0 mm 1 mps 742 mmHg 71%
    07:00 +4°C° 0 mm 1 mps 743 mmHg 70%
    08:00 +6°C° 0 mm 1 mps 743 mmHg 65%
    09:00 +8°C° 0 mm 1 mps 743 mmHg 60%
    10:00 +10°C° 0 mm 1 mps 743 mmHg 55%
    11:00 +11°C° 0 mm 1 mps 743 mmHg 55%
    12:00 +12°C° 0 mm 1 mps 743 mmHg 56%
    13:00 +13°C° 0 mm 1 mps 743 mmHg 56%
    14:00 +13°C° 0 mm 1 mps 742 mmHg 57%
    15:00 +13°C° 0 mm 1 mps 742 mmHg 57%
    16:00 +13°C° 0 mm 1 mps 741 mmHg 58%
    17:00 +12°C° 0 mm 1 mps 741 mmHg 65%
    18:00 +10°C° 0 mm 1 mps 741 mmHg 71%
    19:00 +8°C° 0 mm 0 mps 741 mmHg 77%
    20:00 +7°C° 0 mm 0 mps 741 mmHg 78%
    21:00 +7°C° 0 mm 0 mps 741 mmHg 79%
    22:00 +7°C° 0 mm 0 mps 741 mmHg 80%
    23:00 +6°C° 0 mm 0 mps 741 mmHg 81%

    Day after tomorrow, 22 March, Friday

    Time Temperature Precipitation Wind Pressure Humidity
    00:00 +6°C° 0 mm 0 mps 741 mmHg 82%
    01:00 +6°C° 0 mm 0 mps 741 mmHg 83%
    02:00 +6°C° 0 mm 0 mps 741 mmHg 84%
    03:00 +6°C° 0 mm 0 mps 741 mmHg 85%
    04:00 +5°C° 0 mm 0 mps 741 mmHg 85%
    05:00 +6°C° 0 mm 0 mps 741 mmHg 85%
    06:00 +6°C° 0 mm 0 mps 741 mmHg 84%
    07:00 +6°C° 0 mm 0 mps 741 mmHg 84%
    08:00 +9°C° 0 mm 0 mps 741 mmHg 77%
    09:00 +11°C° 0 mm 0 mps 741 mmHg 69%
    10:00 +13°C° 0 mm 0 mps 741 mmHg 62%
    11:00 +14°C° 0 mm 0 mps 741 mmHg 59%
    12:00 +15°C° 0 mm 0 mps 741 mmHg 56%
    13:00 +16°C° 0 mm 0 mps 741 mmHg 54%
    14:00 +16°C° 0 mm 0 mps 740 mmHg 54%
    15:00 +16°C° 0 mm 0 mps 740 mmHg 54%
    16:00 +16°C° 0 mm 0 mps 739 mmHg 54%
    17:00 +15°C° 0 mm 1 mps 739 mmHg 60%
    18:00 +14°C° 0 mm 1 mps 739 mmHg 67%
    19:00 +12°C° 0 mm 1 mps 739 mmHg 73%
    20:00 +12°C° 0 mm 1 mps 739 mmHg 75%
    21:00 +11°C° 0 mm 1 mps 739 mmHg 76%
    22:00 +10°C° 0 mm 2 mps 739 mmHg 78%
    23:00 +9°C° 0 mm 2 mps 739 mmHg 79%

    23 March, Saturday

    Time Temperature Precipitation Wind Pressure Humidity
    00:00 +9°C° 0 mm 2 mps 739 mmHg 80%
    01:00 +8°C° 0 mm 2 mps 739 mmHg 81%
    02:00 +8°C° 0 mm 2 mps 738 mmHg 82%
    03:00 +8°C° 0 mm 2 mps 738 mmHg 83%
    04:00 +8°C° 0 mm 2 mps 738 mmHg 84%
    05:00 +8°C° 0 mm 2 mps 738 mmHg 83%
    06:00 +8°C° 0 mm 2 mps 738 mmHg 82%
    07:00 +8°C° 0 mm 2 mps 738 mmHg 82%
    08:00 +10°C° 0 mm 2 mps 738 mmHg 73%
    09:00 +13°C° 0 mm 2 mps 738 mmHg 64%
    10:00 +15°C° 0 mm 2 mps 738 mmHg 55%
    11:00 +16°C° 0 mm 2 mps 738 mmHg 52%
    12:00 +17°C° 0 mm 2 mps 738 mmHg 48%
    13:00 +18°C° 0 mm 2 mps 738 mmHg 45%
    14:00 +18°C° 0 mm 2 mps 738 mmHg 46%
    15:00 +18°C° 0 mm 2 mps 737 mmHg 47%
    16:00 +18°C° 0 mm 2 mps 737 mmHg 48%
    17:00 +16°C° 0 mm 2 mps 737 mmHg 56%
    18:00 +15°C° 0 mm 2 mps 737 mmHg 64%
    19:00 +13°C° 0 mm 2 mps 738 mmHg 72%
    20:00 +12°C° 0 mm 2 mps 738 mmHg 78%
    21:00 +10°C° 0 mm 2 mps 738 mmHg 85%
    22:00 +9°C° 0 mm 2 mps 738 mmHg 91%
    23:00 +9°C° 0 mm 2 mps 738 mmHg 92%

    24 March, Sunday

    Time Temperature Precipitation Wind Pressure Humidity
    00:00 +9°C° 0 mm 2 mps 738 mmHg 93%
    01:00 +8°C° 0 mm 2 mps 738 mmHg 94%
    02:00 +8°C° 0 mm 2 mps 738 mmHg 92%
    03:00 +8°C° 0 mm 2 mps 738 mmHg 89%
    04:00 +7°C° 0 mm 2 mps 738 mmHg 87%
    05:00 +7°C° 0 mm 2 mps 738 mmHg 84%
    06:00 +6°C° 0 mm 2 mps 738 mmHg 81%
    07:00 +6°C° 0 mm 2 mps 738 mmHg 78%
    08:00 +7°C° 0 mm 2 mps 738 mmHg 73%
    09:00 +8°C° 0 mm 2 mps 738 mmHg 69%
    10:00 +9°C° 0 mm 2 mps 738 mmHg 64%
    11:00 +12°C° 0 mm 1 mps 737 mmHg 62%
    12:00 +13°C° 0 mm 1 mps 737 mmHg 60%
    13:00 +14°C° 0 mm 1 mps 736 mmHg 57%
    14:00 +14°C° 0 mm 1 mps 736 mmHg 59%
    15:00 +13°C° 0 mm 1 mps 735 mmHg 60%
    16:00 +13°C° 0 mm 1 mps 734 mmHg 62%
    17:00 +12°C° 0 mm 1 mps 734 mmHg 66%
    18:00 +11°C° 0 mm 1 mps 734 mmHg 70%
    19:00 +10°C° 0 mm 1 mps 734 mmHg 74%
    20:00 +10°C° 0 mm 1 mps 734 mmHg 77%
    21:00 +9°C° 0 mm 1 mps 734 mmHg 80%
    22:00 +7°C° 0 mm 0 mps 733 mmHg 83%
    23:00 +8°C° 0 mm 1 mps 733 mmHg 85%

    25 March, Monday

    Time Temperature Precipitation Wind Pressure Humidity
    00:00 +7°C° 0 mm 1 mps 732 mmHg 87%
    01:00 +7°C° 0 mm 1 mps 732 mmHg 89%
    02:00 +7°C° 0 mm 1 mps 732 mmHg 89%
    03:00 +6°C° 0 mm 1 mps 731 mmHg 89%
    04:00 +6°C° 0 mm 1 mps 731 mmHg 89%
    05:00 +6°C° 0 mm 1 mps 731 mmHg 87%
    06:00 +7°C° 0 mm 1 mps 731 mmHg 85%
    07:00 +7°C° 0 mm 1 mps 731 mmHg 82%
    08:00 +7°C° 0 mm 3 mps 731 mmHg 74%
    09:00 +6°C° 0 mm 4 mps 731 mmHg 65%
    10:00 +7°C° 0 mm 5 mps 731 mmHg 57%
    11:00 +7°C° 0 mm 6 mps 730 mmHg 57%
    12:00 +7°C° 0 mm 6 mps 730 mmHg 57%
    13:00 +6°C° 0 mm 7 mps 729 mmHg 57%
    14:00 +6°C° 0.2 mm 7 mps 729 mmHg 59%
    15:00 +5°C° 0.2 mm 7 mps 728 mmHg 61%
    16:00 +5°C° 0.2 mm 8 mps 728 mmHg 64%
    17:00 +4°C° 0.2 mm 7 mps 728 mmHg 64%
    18:00 +3°C° 0.2 mm 6 mps 728 mmHg 65%
    19:00 +2°C° 0.2 mm 6 mps 729 mmHg 66%
    20:00 +1°C° 0 mm 6 mps 729 mmHg 69%
    21:00 0°C° 0 mm 5 mps 729 mmHg 71%
    22:00 -1°C° 0 mm 5 mps 729 mmHg 74%
    23:00 -2°C° 0.2 mm 6 mps 728 mmHg 74%
    Show more